#timestamp,LO_Frequency,Hit,StdDev 
1606122015.1,286046998.9,N
1606122016.0,286046998.9,N
1606122035.8,286046999.4,N
1606122055.6,286046999.2,N
1606122075.5,286046997.4,Y
1606122095.3,286046998.7,P
1606122115.1,286046999.4,P
1606122135.9,286046999.1,N
1606122155.7,286046999.1,Y
1606122175.5,286047000.7,P
1606122195.4,286046998.1,N
1606122215.2,286046999.0,N
1606122235.0,286046998.6,N
1606122235.9,286046998.6,N
1606122255.8,286046998.3,N
1606122275.6,286046999.4,N
1606122295.4,286046996.6,Y
1606122315.3,286046996.5,P
1606122335.1,286046996.9,N
1606122336.0,286046996.9,N
1606122355.8,286046999.5,N
1606122375.7,286046997.1,N
1606122395.5,286046997.3,N
1606122415.3,286046996.8,Y
1606122435.2,286046998.7,P
1606122455.9,286046998.8,N
1606122475.7,286046999.4,N
1606122495.6,286046998.9,N
1606122515.4,286046998.7,N
1606122535.2,286046998.6,N
1606122555.1,286046998.5,Y
1606122556.0,286046998.5,P
1606122575.8,286047000.8,P
1606122595.6,286047001.0,N
1606122615.5,286046998.9,N
1606122635.3,286046998.9,N
1606122655.1,286046999.9,N
1606122675.9,286046998.3,N
1606122695.7,286047001.1,N
1606122715.5,286046998.2,N
1606122735.4,286046998.7,N
1606122755.2,286046998.4,N
1606122775.0,286046998.1,N
1606122775.9,286046998.1,N
1606122795.8,286046999.1,N
1606122815.6,286046999.5,N
1606122835.4,286046999.6,N
1606122855.3,286046996.8,Y
1606122875.1,286046999.3,P
1606122895.8,286046998.1,P
1606122915.7,286046998.4,P
1606122935.5,286047000.8,N
1606122955.3,286046998.7,N
1606122975.2,286046999.1,N
1606122995.9,286046999.4,N
1606123015.7,286046998.2,N
1606123035.6,286046998.9,N
1606123055.4,286046999.2,N
1606123075.2,286046999.0,N
1606123095.1,286046996.9,Y
1606123096.0,286046996.9,P
1606123115.8,286047001.2,N
1606123135.6,286047000.3,N
1606123155.5,286047002.8,N
1606123175.3,286046999.9,N
1606123195.1,286047002.4,N
1606123215.9,286046999.8,N
1606123235.7,286047000.4,N
1606123255.5,286047000.6,N
1606123275.4,286047004.0,N
1606123295.2,286047002.3,N
1606123315.0,286047002.5,N
1606123315.9,286047002.5,N
1606123335.8,286047002.4,N
1606123355.6,286047002.4,N
1606123375.4,286047000.1,N
1606123395.3,286047002.1,N
1606123415.1,286047002.8,N
1606123435.8,286047001.6,N
1606123455.7,286047001.8,N
1606123475.5,286047003.5,N
1606123495.3,286047003.5,N
1606123515.2,286047003.3,N
1606123535.0,286047003.1,N
1606123535.9,286047003.1,N
1606123555.7,286047004.0,N
1606123575.6,286047003.2,N
1606123595.4,286047003.3,N
1606123615.2,286047006.0,Y
1606123635.1,286047002.4,P
1606123636.0,286047002.4,P
1606123655.8,286047002.5,P
1606123675.7,286047002.5,Y
1606123695.5,286046998.5,P
1606123715.3,286047000.9,N
1606123735.2,286047000.5,N
1606123755.9,286047000.2,N
1606123775.7,286047000.5,N
1606123795.6,286047000.2,N
1606123815.4,286047001.6,N
1606123835.2,286047002.0,N
1606123855.1,286047001.9,N
1606123856.0,286047001.9,N
1606123875.8,286047003.9,Y
1606123895.6,286047002.7,P
1606123915.5,286047002.4,N
1606123935.3,286047001.7,N
1606123955.1,286047004.2,Y
1606123975.9,286047000.2,P
1606123995.7,286047000.5,N
1606124015.5,286047002.4,P
1606124035.4,286047001.6,N
1606124055.2,286047002.3,N
1606124075.0,286046999.8,N
1606124075.9,286046999.8,N
1606124095.8,286047002.0,N
1606124115.6,286047004.3,Y
1606124135.4,286047002.6,P
1606124155.3,286047002.0,N
1606124175.1,286047001.5,N
1606124195.8,286046999.8,N
1606124215.7,286047001.6,N
1606124235.5,286047002.6,N
1606124255.3,286047002.6,N
1606124275.2,286047002.3,N
1606124295.0,286047003.8,Y
1606124295.9,286047003.8,P
1606124315.7,286047001.9,N
1606124335.6,286047001.9,N
1606124355.4,286047001.3,N
1606124375.2,286047003.6,Y
1606124395.1,286046999.7,P
1606124396.0,286046999.7,N
1606124415.8,286047000.5,N
1606124435.7,286047000.1,N
1606124455.5,286047002.4,N
1606124475.3,286047002.8,N
1606124495.2,286047001.4,N
1606124515.9,286047002.0,N
1606124535.7,286047002.0,N
1606124555.6,286047002.3,N
1606124575.4,286047002.0,N
1606124595.2,286047001.9,N
1606124615.1,286046999.7,N
1606124616.0,286046999.7,N
1606124635.8,286047002.3,N
1606124655.6,286047001.9,N
1606124675.5,286047001.7,N
1606124695.3,286047001.7,N
1606124715.1,286047003.2,Y
1606124735.9,286047003.9,P
1606124755.7,286047001.7,N
1606124775.5,286047001.9,N
1606124795.4,286047004.2,Y
1606124815.2,286047000.5,P
1606124835.0,286047001.6,N
1606124835.9,286047001.6,N
1606124855.8,286047002.0,Y
1606124875.6,286047001.0,P
1606124895.4,286047000.3,N
1606124915.3,286046999.9,N
1606124935.1,286047002.2,Y
1606124955.8,286047000.3,P
1606124975.7,286047000.8,P
1606124995.5,286047001.0,P
1606125015.4,286047001.0,Y
1606125035.2,286047002.4,P
1606125055.0,286047000.4,N
1606125055.9,286047000.4,N
1606125075.8,286047000.4,N
1606125095.6,286047001.0,N
1606125115.4,286047000.5,N
1606125135.3,286047000.9,N
1606125155.1,286047002.3,Y
1606125156.0,286047002.3,P
1606125175.8,286047000.4,N
1606125195.7,286047000.2,N
1606125215.5,286047000.0,N
1606125235.3,286047002.3,N
1606125255.2,286047001.7,N
1606125275.9,286047001.4,N
1606125295.7,286047001.6,N
1606125315.6,286047002.3,N
1606125335.4,286047004.4,Y
1606125355.2,286047001.9,P
1606125375.1,286047001.4,P
1606125376.0,286047001.4,P
1606125395.8,286047002.5,Y
1606125415.6,286047002.7,P
1606125435.5,286046999.7,N
1606125455.3,286047002.6,N
1606125475.1,286047000.3,N
1606125495.9,286047000.1,N
1606125515.7,286047000.2,N
1606125535.5,286047002.7,N
1606125555.4,286047002.3,N
1606125575.2,286047003.2,N
1606125595.0,286047001.4,N
1606125595.9,286047001.4,N
